User: anonymous   Login
Location: C�mpuri de-Sus
(45.9500°N, 22.5500°E)
Time: 09:30:39
(UTC+00:00)
Language:

Cosmos 839 Rocket - Orbit

View from above orbital plane
View from above orbital plane
View from above satellite
View from above satellite

Ground track
Ground track

The orbit data is extracted from the following two-line orbital elements,

1 09013U 76067B   24110.67887133 -.00000019  00000-0  11852-3 0  9991
2 09013  65.8639 195.1659 0714064 175.3052 185.5134 12.35374719154912
Epoch (UTC): 19 April 2024 16:17:34
Eccentricity: 0.0714064
inclination: 65.8639°
perigee height: 962 km
apogee height: 2090 km
right ascension of ascending node: 195.1659°
argument of perigee: 175.3052°
revolutions per day: 12.35374719
mean anomaly at epoch: 185.5134°
orbit number at epoch: 15491

The dashed part of the orbit path shows where the satellite is in the earth's shadow,  

DLR